Home   Weather   Pécs   Past weeks

Flag for Hungary Past Weather in Pécs, Hungary — Yesterday and Last 2 Weeks

Now
60 °F

Refreshingly cool.


Feels Like: 60 °F
Forecast: 43 / 70 °F
Wind: 2 mph from North

Location: Pecs / Pogany

Current Time: Sep 27, 2016 at 9:03:43 PM

Latest Report: Sep 27, 2016 at 8:00 PM


Visibility: N/A

Pressure: 30.34 "Hg

Humidity: 56%

Dew Point: 44 °F

Location of PécsLocation

Past Weather in Pécs — Graph

°F

Pécs Temperature Yesterday

Maximum temperature yesterday: 68 °F (at 2:00 PM)
Minimum temperature yesterday: 52 °F (at 7:00 AM)
Average temperature yesterday: 60 °F

High & Low Weather Summary for the Past Weeks

 TemperatureHumidityPressure
High84 °F (Sep 13, 2:00 PM)100% (Sep 14, 6:00 AM)30.36 "Hg (Sep 14, 6:00 AM)
Low47 °F (Sep 21, 6:00 AM)34% (Sep 26, 5:00 PM)29.73 "Hg (Sep 19, 5:00 PM)
Average63 °F69%30.06 "Hg
* Reported Sep 12 8:00 PM — Sep 27 8:00 PM, Pécs, Weather by CustomWeather, © 2016

Note: Actual official high and low records may vary slightly from our data, if they occured in-between our weather recording intervals... More about our weather records

Advertising

Pécs Weather History for the Previous 24 Hours

Scroll right to see more
 ConditionsComfort  
Time TempWeatherWind HumidityBarometerVisibility
8:00 PM
Tue, Sep 27
60 °FRefreshingly cool.2 mph56%30.34 "HgN/A
7:00 PM63 °FPassing clouds.2 mph47%30.32 "Hg47 mi
6:00 PM64 °FPassing clouds.1 mph46%30.31 "Hg47 mi
5:00 PM65 °FScattered clouds.2 mph41%30.30 "Hg47 mi
4:00 PM68 °FPartly sunny.2 mph39%30.29 "Hg47 mi
3:00 PM67 °FPartly sunny.5 mph40%30.29 "Hg47 mi
2:00 PM68 °FPartly sunny.2 mph39%30.29 "Hg47 mi
1:00 PM67 °FPartly sunny.1 mph36%30.29 "Hg47 mi
12:00 PM68 °FScattered clouds.2 mph44%30.29 "Hg47 mi
11:00 AM64 °FScattered clouds.2 mph47%30.29 "Hg47 mi
10:00 AM65 °FPartly sunny.1 mph46%30.28 "Hg47 mi
9:00 AM60 °FPartly sunny.No wind60%30.27 "Hg47 mi
8:00 AM56 °FPartly sunny.No wind66%30.26 "Hg43 mi
7:00 AM54 °FCool.No wind62%30.25 "HgN/A
6:00 AM54 °FCool.No wind62%30.25 "HgN/A
5:00 AM54 °FCool.1 mph62%30.25 "HgN/A
4:00 AM52 °FCool.1 mph67%30.25 "HgN/A
3:00 AM53 °FCool.No wind66%30.25 "HgN/A
2:00 AM54 °FCool.1 mph64%30.25 "HgN/A
1:00 AM55 °FCool.1 mph61%30.24 "HgN/A
12:00 AM55 °FCool.1 mph62%30.24 "HgN/A
11:00 PM
Mon, Sep 26
56 °FCool.1 mph62%30.24 "HgN/A
10:00 PM57 °FRefreshingly cool.1 mph59%30.24 "HgN/A
9:00 PM57 °FCool.1 mph63%30.22 "HgN/A
Weather by CustomWeather, © 2016

See weather overviewHow to use our weather pages